Stündliche Wetter Lábatlan

Heute, 10 Mai, Montag

Zeit Temperatur Niederschläge Wind Luftdruck Luftfeuchtigkeit
00:00 +10°C° 0 mm 4 m/S 745 mmHg 80%
01:00 +8°C° 0 mm 4 m/S 745 mmHg 81%
02:00 +8°C° 0 mm 4 m/S 745 mmHg 82%
03:00 +8°C° 0 mm 4 m/S 745 mmHg 82%
04:00 +8°C° 0 mm 4 m/S 745 mmHg 82%
05:00 +10°C° 0 mm 4 m/S 745 mmHg 77%
06:00 +10°C° 0 mm 5 m/S 745 mmHg 72%
07:00 +13°C° 0 mm 6 m/S 745 mmHg 66%
08:00 +15°C° 0 mm 6 m/S 745 mmHg 62%
09:00 +16°C° 0 mm 6 m/S 745 mmHg 58%
10:00 +18°C° 0 mm 7 m/S 744 mmHg 53%
11:00 +21°C° 0 mm 7 m/S 744 mmHg 51%
12:00 +22°C° 0 mm 7 m/S 744 mmHg 50%
13:00 +23°C° 0 mm 7 m/S 744 mmHg 48%
14:00 +23°C° 0 mm 6 m/S 743 mmHg 49%
15:00 +25°C° 0 mm 5 m/S 743 mmHg 50%
16:00 +25°C° 0 mm 5 m/S 743 mmHg 52%
17:00 +22°C° 0 mm 4 m/S 743 mmHg 58%
18:00 +20°C° 0 mm 4 m/S 743 mmHg 64%
19:00 +18°C° 0 mm 4 m/S 743 mmHg 70%
20:00 +17°C° 0 mm 3 m/S 743 mmHg 74%
21:00 +17°C° 0 mm 3 m/S 743 mmHg 78%
22:00 +16°C° 0 mm 3 m/S 743 mmHg 82%
23:00 +14°C° 0 mm 3 m/S 743 mmHg 84%

Morgen, 11 Mai, Dienstag

Zeit Temperatur Niederschläge Wind Luftdruck Luftfeuchtigkeit
00:00 +14°C° 0 mm 3 m/S 743 mmHg 86%
01:00 +13°C° 0 mm 4 m/S 743 mmHg 88%
02:00 +13°C° 0 mm 4 m/S 742 mmHg 88%
03:00 +12°C° 0 mm 4 m/S 742 mmHg 88%
04:00 +12°C° 0 mm 4 m/S 742 mmHg 89%
05:00 +13°C° 0 mm 4 m/S 742 mmHg 82%
06:00 +14°C° 0 mm 5 m/S 742 mmHg 76%
07:00 +15°C° 0 mm 5 m/S 742 mmHg 70%
08:00 +17°C° 0 mm 5 m/S 742 mmHg 65%
09:00 +20°C° 0 mm 6 m/S 742 mmHg 60%
10:00 +22°C° 0 mm 6 m/S 742 mmHg 54%
11:00 +23°C° 0 mm 6 m/S 742 mmHg 52%
12:00 +24°C° 0 mm 7 m/S 741 mmHg 50%
13:00 +26°C° 0 mm 7 m/S 741 mmHg 48%
14:00 +26°C° 0 mm 6 m/S 740 mmHg 50%
15:00 +26°C° 0 mm 6 m/S 740 mmHg 52%
16:00 +26°C° 0 mm 5 m/S 740 mmHg 53%
17:00 +23°C° 0 mm 4 m/S 739 mmHg 60%
18:00 +21°C° 0 mm 4 m/S 739 mmHg 67%
19:00 +19°C° 0 mm 3 m/S 739 mmHg 74%
20:00 +18°C° 0 mm 3 m/S 739 mmHg 76%
21:00 +18°C° 0 mm 3 m/S 739 mmHg 78%
22:00 +17°C° 0 mm 3 m/S 739 mmHg 80%
23:00 +16°C° 0 mm 3 m/S 738 mmHg 81%

übermorgen, 12 Mai, Mittwoch

Zeit Temperatur Niederschläge Wind Luftdruck Luftfeuchtigkeit
00:00 +15°C° 0 mm 2 m/S 738 mmHg 81%
01:00 +15°C° 0 mm 2 m/S 738 mmHg 81%
02:00 +14°C° 0 mm 2 m/S 738 mmHg 80%
03:00 +13°C° 0 mm 2 m/S 737 mmHg 79%
04:00 +13°C° 0 mm 2 m/S 737 mmHg 79%
05:00 +14°C° 0 mm 2 m/S 737 mmHg 72%
06:00 +16°C° 0 mm 2 m/S 737 mmHg 66%
07:00 +17°C° 0 mm 2 m/S 737 mmHg 60%
08:00 +18°C° 0 mm 2 m/S 737 mmHg 57%
09:00 +19°C° 0 mm 2 m/S 737 mmHg 55%
10:00 +21°C° 0 mm 3 m/S 737 mmHg 53%
11:00 +21°C° 0.1 mm 2 m/S 736 mmHg 53%
12:00 +23°C° 0.1 mm 2 m/S 736 mmHg 54%
13:00 +23°C° 0.1 mm 2 m/S 736 mmHg 55%
14:00 +21°C° 0.5 mm 2 m/S 735 mmHg 61%
15:00 +20°C° 0.5 mm 2 m/S 735 mmHg 68%
16:00 +19°C° 0.5 mm 3 m/S 735 mmHg 75%
17:00 +18°C° 0.5 mm 3 m/S 735 mmHg 80%
18:00 +16°C° 0.5 mm 3 m/S 735 mmHg 84%
19:00 +14°C° 0.5 mm 3 m/S 735 mmHg 89%
20:00 +13°C° 0.6 mm 3 m/S 735 mmHg 90%
21:00 +13°C° 0.6 mm 3 m/S 735 mmHg 92%
22:00 +12°C° 0.6 mm 3 m/S 735 mmHg 94%
23:00 +12°C° 0.8 mm 3 m/S 734 mmHg 95%

13 Mai, Donnerstag

Zeit Temperatur Niederschläge Wind Luftdruck Luftfeuchtigkeit
00:00 +11°C° 0.8 mm 3 m/S 734 mmHg 95%
01:00 +11°C° 0.8 mm 3 m/S 734 mmHg 96%
02:00 +11°C° 0.4 mm 3 m/S 734 mmHg 96%
03:00 +11°C° 0.4 mm 3 m/S 734 mmHg 96%
04:00 +11°C° 0.4 mm 3 m/S 734 mmHg 97%
05:00 +11°C° 0.5 mm 3 m/S 734 mmHg 96%
06:00 +11°C° 0.5 mm 3 m/S 734 mmHg 96%
07:00 +11°C° 0.5 mm 3 m/S 734 mmHg 96%
08:00 +11°C° 0.6 mm 4 m/S 734 mmHg 96%
09:00 +11°C° 0.6 mm 4 m/S 734 mmHg 96%
10:00 +11°C° 0.6 mm 4 m/S 734 mmHg 95%
11:00 +10°C° 0.5 mm 5 m/S 734 mmHg 95%
12:00 +9°C° 0.5 mm 5 m/S 734 mmHg 95%
13:00 +9°C° 0.5 mm 5 m/S 735 mmHg 94%
14:00 +9°C° 0.6 mm 5 m/S 735 mmHg 94%
15:00 +9°C° 0.6 mm 5 m/S 735 mmHg 94%
16:00 +9°C° 0.6 mm 5 m/S 735 mmHg 94%
17:00 +9°C° 0.4 mm 5 m/S 735 mmHg 94%
18:00 +9°C° 0.4 mm 5 m/S 735 mmHg 93%
19:00 +10°C° 0.4 mm 4 m/S 736 mmHg 93%
20:00 +10°C° 0.1 mm 4 m/S 736 mmHg 93%
21:00 +10°C° 0.1 mm 4 m/S 736 mmHg 94%
22:00 +10°C° 0.1 mm 4 m/S 736 mmHg 94%
23:00 +10°C° 0.2 mm 4 m/S 736 mmHg 94%

14 Mai, Freitag

Zeit Temperatur Niederschläge Wind Luftdruck Luftfeuchtigkeit
00:00 +10°C° 0.2 mm 4 m/S 736 mmHg 94%
01:00 +10°C° 0.2 mm 4 m/S 736 mmHg 93%
02:00 +10°C° 0.2 mm 4 m/S 737 mmHg 93%
03:00 +9°C° 0.2 mm 5 m/S 737 mmHg 93%
04:00 +9°C° 0.2 mm 5 m/S 737 mmHg 93%
05:00 +9°C° 0.4 mm 5 m/S 737 mmHg 93%
06:00 +10°C° 0.4 mm 4 m/S 737 mmHg 93%
07:00 +10°C° 0.4 mm 4 m/S 738 mmHg 93%
08:00 +10°C° 0.2 mm 4 m/S 738 mmHg 92%
09:00 +10°C° 0.2 mm 4 m/S 738 mmHg 92%
10:00 +10°C° 0.2 mm 4 m/S 739 mmHg 91%
11:00 +11°C° 0.1 mm 4 m/S 739 mmHg 90%
12:00 +11°C° 0.1 mm 4 m/S 739 mmHg 90%
13:00 +11°C° 0.1 mm 4 m/S 739 mmHg 89%
14:00 +11°C° 0 mm 4 m/S 739 mmHg 87%
15:00 +11°C° 0 mm 3 m/S 740 mmHg 85%
16:00 +12°C° 0 mm 3 m/S 740 mmHg 83%
17:00 +11°C° 0 mm 3 m/S 740 mmHg 86%
18:00 +10°C° 0 mm 2 m/S 740 mmHg 88%
19:00 +11°C° 0 mm 1 m/S 740 mmHg 91%
20:00 +11°C° 0 mm 1 m/S 740 mmHg 91%
21:00 +10°C° 0 mm 1 m/S 740 mmHg 92%
22:00 +9°C° 0 mm 0 m/S 740 mmHg 92%
23:00 +8°C° 0 mm 0 m/S 740 mmHg 92%

15 Mai, Samstag

Zeit Temperatur Niederschläge Wind Luftdruck Luftfeuchtigkeit
00:00 +8°C° 0 mm 0 m/S 740 mmHg 92%
01:00 +8°C° 0 mm 0 m/S 740 mmHg 92%
02:00 +8°C° 0 mm 0 m/S 740 mmHg 91%
03:00 +8°C° 0 mm 0 m/S 740 mmHg 90%
04:00 +8°C° 0 mm 0 m/S 740 mmHg 90%
05:00 +9°C° 0 mm 0 m/S 740 mmHg 88%
06:00 +10°C° 0 mm 0 m/S 741 mmHg 86%
07:00 +10°C° 0 mm 0 m/S 741 mmHg 84%
08:00 +11°C° 0 mm 0 m/S 741 mmHg 80%
09:00 +12°C° 0 mm 0 m/S 741 mmHg 77%
10:00 +14°C° 0 mm 1 m/S 741 mmHg 73%
11:00 +15°C° 0.1 mm 1 m/S 741 mmHg 69%
12:00 +18°C° 0.1 mm 1 m/S 741 mmHg 66%
13:00 +19°C° 0.1 mm 1 m/S 741 mmHg 62%
14:00 +18°C° 0.1 mm 2 m/S 740 mmHg 63%
15:00 +18°C° 0.1 mm 2 m/S 740 mmHg 63%
16:00 +18°C° 0.1 mm 2 m/S 740 mmHg 63%
17:00 +16°C° 0 mm 2 m/S 740 mmHg 71%
18:00 +15°C° 0 mm 2 m/S 740 mmHg 78%
19:00 +13°C° 0 mm 2 m/S 740 mmHg 86%
20:00 +12°C° 0 mm 2 m/S 740 mmHg 88%
21:00 +11°C° 0 mm 1 m/S 740 mmHg 90%
22:00 +10°C° 0 mm 1 m/S 740 mmHg 92%
23:00 +10°C° 0 mm 1 m/S 740 mmHg 93%
Mehr zeigen

Wir brauchen deine Erlaubnis

Meteoprog und unser Service Anbieter werden persönliche Daten aufbewahren, so wie Cookies, Geräte Bezeichnung oder ähnliche Technologien von deinem Gerät und Prozess, so wie Persönliche Daten Inhalte und Werbungen, genauso wie social Media und den Verkehr zu analysieren.

  • Aufbewahrung und/oder Zugang zu deiner Geräte Informationen.

    Cookies, Geräte Bezeichnung oder andere Informationen, können aufbewahrt oder Zugang zu deinem Gerät erhalten, für den Grund, der oben angegeben wird.

  • Personalisierte Werbung und Inhalte, Messungen, Einblick in das Publikum und Produkt Entwicklung.

    Werbungen und Inhalte können personalisiert werden, basierend auf ein Profil. Mehr Daten können besser personalisierte Werbungen und Inhalte hinzufügen. Werbung und Inhalte können gezeigt und gemessen werden. Einblicke über das Publikum, welche die Werbung gesehen haben und den Inhalt, können abgeleitet werden. So wie Daten können genutzt werden, um es zu verbessern oder die Benutzer Erfahrung zu verbessern das System und die Software.

Wenn du “Ich stimme zu” klickst, erlaubst du uns, die Cookies zu benutzen die Geräte Bezeichnung, den Web oder ähnliche Technologien zu benutzen. Deine Settings, können in deinem Gerät bei deinem Browser geändert werden.

Für den bestimmten Zweck, berechtigten Interessen beruhen darauf, mehr als auf den Inhalt. Du kannst mehr darüber in unseren Privaten und Cookie Politik lesen.